Weather History for Worcester, MA

Change the Weather History Date:

Monday, July 7, 2014

  Actual Average Record
Temperature  
Mean Temperature 74 °F 70 °F  
Max Temperature 83 °F 79 °F 95 °F (1908)
Min Temperature 64 °F 61 °F 48 °F (1938)
Degree Days  
Heating Degree Days 0 1  
Month to date heating degree days 0 7  
Since 1 June heating degree days 45 90  
Since 1 July heating degree days 0 7  
Cooling Degree Days 9 5  
Month to date cooling degree days 49 35  
Year to date cooling degree days 141 141  
Since 1 June cooling degree days 133 119  
Growing Degree Days 23 (Base 50)    
Moisture  
Dew Point 63 °F    
Average Humidity 71    
Maximum Humidity 90    
Minimum Humidity 51    
Precipitation  
Precipitation 0.14 in 0.13 in 2.42 in (1984)
Month to date precipitation 1.87 0.86  
Year to date precipitation 24.62 24.28  
Sea Level Pressure  
Sea Level Pressure 29.81 in    
Wind  
Wind Speed 12 mph (SW)    
Max Wind Speed 24 mph    
Max Gust Speed 31 mph    
Visibility 10 miles    
Events Rain , Thunderstorm    
T = Trace of Precipitation, MM = Missing Value Source: NWS Daily Summary

Daily Weather History Graph

Daily Weather History Graph

Search for Another Location

Airport:

Trip Planner

Search our weather history database for the weather conditions in past years. The results will help you decide how hot, cold, wet, or windy it might be!

Date:

Astronomy

Jul. 07, 2014 Rise Set
Actual Time 5:18 AM EDT 8:26 PM EDT
Civil Twilight 4:44 AM EDT 9:00 PM EDT
Nautical Twilight 4:00 AM EDT 9:44 PM EDT
Astronomical Twilight 3:07 AM EDT 10:36 PM EDT
Moon 3:23 PM EDT (7/7) 1:13 AM EDT (7/7)
Length of Visible Light 16h 16m
Length of Day
15h 07m
Waxing Gibbous, 72% of the Moon is Illuminated
Jul 7
Waxing Gibbous
Jul 12
Full
Jul 18
Last Quarter
Jul 26
New
Aug 3
First Quarter

Hourly Weather History & Observations

Time (EDT) Temp. Heat Index Dew Point Humidity Pressure Visibility Wind Dir Wind Speed Gust Speed Precip Events Conditions
12:54 AM 66.9 °F - 59.0 °F 76% 29.90 in 10.0 mi SW 11.5 mph - N/A   Clear
1:54 AM 66.0 °F - 57.9 °F 75% 29.89 in 10.0 mi SW 10.4 mph - N/A   Clear
2:54 AM 64.9 °F - 59.0 °F 81% 29.88 in 10.0 mi SW 9.2 mph - N/A   Clear
3:54 AM 64.9 °F - 59.0 °F 81% 29.87 in 10.0 mi SW 8.1 mph - N/A   Clear
4:54 AM 64.0 °F - 60.1 °F 87% 29.87 in 10.0 mi SW 9.2 mph - N/A   Mostly Cloudy
5:54 AM 64.9 °F - 60.1 °F 84% 29.86 in 10.0 mi SW 8.1 mph - N/A   Overcast
6:54 AM 66.0 °F - 61.0 °F 84% 29.86 in 10.0 mi SW 10.4 mph - N/A   Overcast
7:54 AM 66.0 °F - 61.0 °F 84% 29.87 in 10.0 mi SW 11.5 mph - N/A   Overcast
8:54 AM 70.0 °F - 62.1 °F 76% 29.85 in 10.0 mi SW 10.4 mph - N/A   Clear
9:54 AM 73.9 °F - 63.0 °F 68% 29.83 in 10.0 mi SSW 12.7 mph - N/A   Clear
10:54 AM 78.1 °F - 62.1 °F 58% 29.82 in 10.0 mi SW 15.0 mph 23.0 mph N/A   Clear
11:54 AM 80.1 °F 81.2 °F 62.1 °F 54% 29.80 in 10.0 mi SW 16.1 mph 25.3 mph N/A   Clear
12:54 PM 81.0 °F 81.9 °F 62.1 °F 52% 29.79 in 10.0 mi WSW 18.4 mph 26.5 mph N/A   Mostly Cloudy
1:54 PM 82.0 °F 83.1 °F 63.0 °F 52% 29.76 in 10.0 mi SW 17.3 mph 24.2 mph N/A   Scattered Clouds
2:54 PM 82.9 °F 84.4 °F 64.0 °F 53% 29.75 in 10.0 mi SW 17.3 mph 27.6 mph N/A   Mostly Cloudy
3:54 PM 82.0 °F 84.1 °F 66.0 °F 58% 29.74 in 10.0 mi SSW 15.0 mph 23.0 mph N/A   Mostly Cloudy
4:54 PM 81.0 °F 83.0 °F 66.0 °F 60% 29.73 in 10.0 mi SW 19.6 mph 27.6 mph N/A   Scattered Clouds
5:54 PM 80.1 °F 82.1 °F 66.0 °F 62% 29.74 in 10.0 mi SW 12.7 mph - N/A Thunderstorm Mostly Cloudy
6:03 PM 80.1 °F 82.1 °F 66.0 °F 62% 29.76 in 10.0 mi SW 12.7 mph - N/A   Scattered Clouds
6:54 PM 75.9 °F - 66.9 °F 74% 29.76 in 10.0 mi SW 15.0 mph - 0.00 in Rain Light Rain
7:54 PM 73.9 °F - 66.9 °F 79% 29.76 in 10.0 mi SSW 9.2 mph - 0.00 in   Clear
8:54 PM 73.9 °F - 66.9 °F 79% 29.77 in 10.0 mi SW 13.8 mph - 0.00 in Thunderstorm Partly Cloudy
9:17 PM 73.0 °F - 63.0 °F 71% 29.82 in 10.0 mi WNW 15.0 mph 24.2 mph N/A Thunderstorm Thunderstorm
9:51 PM 69.8 °F - 66.2 °F 88% 29.81 in 10.0 mi SW 9.2 mph - 0.11 in   Scattered Clouds
9:54 PM 70.0 °F - 66.0 °F 87% 29.80 in 10.0 mi WSW 8.1 mph - 0.11 in Rain Light Rain
10:54 PM 70.0 °F - 66.9 °F 90% 29.79 in 9.0 mi WSW 8.1 mph - 0.01 in   Scattered Clouds
11:54 PM 69.1 °F - 66.9 °F 93% 29.79 in 8.0 mi West 8.1 mph - 0.00 in   Mostly Cloudy